Showing default

COSMOS 2515, 41394

Orbit data source: Space-Track

COSMOS 2515, 41394 is a payload satellite owned by VVKO VKS (CIS) in SSO that was launched on Thu, 24 Mar 2016 UTC via a SOYUZ-2-1A launch vehicle from the Plesetsk Missile And Space Complex (PKMTR). Payload-class satellites include a variety of spacecraft equipped with specific instruments for various scientific and technological missions. These include communications satellites like Starlink; space stations such as the ISS; scientific satellites like the Hubble; Earth observation satellites from companies like Planet Labs, Umbra, and HawkEye 360; GPS; miniature CubeSats for education and research; and military/defense satellites.

Loading next visibility...
Identifier
41394, 2016-020A
Orbit
SSO
Country
Flag of CISCIS
Related business
Manufacturer
Arsenal
Mission
Operational Defense Imaging
Bus & Motor
BARS, AOCS
Mass
3,700 kg wet, ~3,500 kg dry
Launch date (UTC)
2016-03-24 (10 years ago)
Launch vehicle
SOYUZ-2-1A
Launch site
Plesetsk Missile And Space Complex (PKMTR)
Object type
Payload
Rocket body
Debris
Shape & HBR
Cyl + 2 Pan, 5.0 m
Radar Cross Section
20.881 m², Large (>1 m²)

Expand to show TLE details & history
Last TLE update: 7 hours ago

TLE from 7 hours ago
0 COSMOS 2515
1 41394U 16020A   25303.25516899  .00002366  00000-0  16220-3 0  9999
2 41394  97.9822 305.1728 0024090   4.1068 356.0351 15.06875863525778
Epoch: 2025-10-30T06:07Z
TLE epoch observation values (Epoch: 2025-10-30T06:07:26.600Z)
Latitude
-0.00009°
Longitude
174.4954°
Altitude
532.166 km
Speed
7.606 km/s
True Right ascension
20h 20m 41s
True Declination
0° 00' 00"
Sunlit
Object was in daylight at epoch
Visualization orbit readout
Latitude
Unknown
Longitude
Unknown
Altitude
Unknown
Speed
Unknown
Apparent Right ascension
Unknown
Apparent Declination
Unknown
Sunlit
N/A
Visualization observer readout
Local Sidereal Time
09:04:03
Azimuth
Unknown
Elevation
Unknown
Doppler factor
Unknown
Orbital elements
Apogee altitude
559.435 km
Perigee altitude
526.09 km
Semi-major axis
6,920.899 km
Eccentricity
0.00241
Inclination
97.9822°
RAAN
305.1728°
Arg. of periapsis
4.1068°
True anomaly
356.01595°
Mean anomaly
356.0351°
Eccentric anomaly
356.02553°
Mean motion
3.76964 °/min
Orbital period
95.5 mins
BSTAR
0.0001622
Loading maneuver chart data...
Computing Atmospheric mass density...
Loading historical data...
Loading historical data...
Loading historical data...
Loading historical data...
Loading historical data...
Loading historical data...
Loading historical data...
Other satellites on launch #20 in the year 2016 (2016-03-24 UTC)

Documentation

Showing up to 5 results
|